Wind_Speed
65 66 66 69 71 69 67 67 68 68 61 55 55 52 48 44 42 41 42 40 40 39 36 34 36 37 38 40 36 34 34 35 35 36 35 36 36 37 38 36 34 34 34 34
64 65 69 73 69 66 66 66 66 64 59 57 54 51 46 43 41 39 41 43 39 37 36 35 36 37 39 39 36 36 35 35 36 36 36 37 38 38 39 37 36 36 36 35
70 68 73 74 69 66 64 63 63 62 61 56 54 51 49 47 42 37 38 40 38 37 37 37 37 37 38 37 36 35 36 38 36 36 37 38 39 40 41 39 37 38 37 36
69 70 72 70 62 57 58 60 60 62 61 57 52 45 47 49 44 38 36 36 36 37 36 36 33 32 34 34 35 35 38 39 38 38 38 39 41 42 43 40 37 38 37 37
64 66 71 65 53 52 55 55 52 55 57 57 61 54 49 43 42 41 34 34 38 39 38 30 25 28 33 34 31 33 37 39 39 39 39 41 43 44 43 39 37 37 37 37
61 62 65 56 46 47 52 52 45 48 49 50 54 56 51 41 27 28 29 34 36 36 31 27 31 34 38 41 39 37 37 39 40 40 41 42 44 45 42 38 37 36 38 37
58 60 62 56 50 49 50 48 43 42 43 44 44 42 39 41 43 34 31 33 35 31 26 28 32 37 40 41 39 37 38 40 41 43 43 43 44 43 40 39 37 37 38 38
60 62 58 54 53 52 52 49 47 43 43 43 40 38 37 37 42 49 44 34 31 25 25 30 34 35 36 38 37 37 38 42 45 45 44 44 42 41 39 39 38 38 39 39
58 57 52 48 48 48 48 49 46 43 41 44 41 37 34 31 29 29 40 45 39 26 24 30 34 34 36 39 40 41 42 45 46 44 42 41 40 40 39 38 39 38 38 39
53 46 45 46 47 50 51 52 50 49 46 44 43 39 36 37 35 30 31 33 38 37 33 32 31 32 35 37 37 39 44 45 43 41 39 38 39 38 38 38 39 39 39 41
46 40 37 40 49 55 59 57 54 51 47 48 50 44 40 38 38 39 38 31 33 38 35 31 29 33 40 39 38 42 44 42 41 38 37 37 38 38 39 39 40 40 42 44
40 43 38 39 51 59 58 48 41 43 43 41 41 42 39 37 41 41 36 29 28 32 34 33 32 37 41 41 42 43 41 40 38 36 36 37 38 38 40 42 42 44 47 50
43 43 44 46 50 54 43 36 37 37 29 23 24 27 28 28 27 27 29 26 24 24 29 31 34 41 44 45 43 40 39 37 35 36 36 37 38 40 43 44 46 48 51 54
41 39 40 40 43 46 43 36 31 25 16 7 9 11 12 13 17 22 21 17 14 19 26 31 38 43 45 42 38 37 36 35 35 36 37 38 40 43 45 48 51 53 55 57
36 36 34 35 37 35 34 32 26 19 13 9 6 3 3 5 8 8 8 10 15 23 29 35 41 42 39 36 35 35 34 34 34 36 38 41 44 47 49 51 53 55 58 61
29 28 29 32 33 32 27 26 25 21 18 15 12 10 8 7 7 8 11 15 21 27 33 37 38 36 35 35 35 34 34 36 38 40 43 46 49 51 52 54 56 58 62 65
25 24 25 27 29 30 27 24 22 19 16 15 15 14 15 15 15 17 19 23 27 30 32 32 32 33 34 34 34 35 37 40 43 45 48 50 52 54 56 58 61 65 69 73
24 23 24 26 27 25 24 24 23 21 19 19 20 20 21 22 23 25 27 28 28 28 28 29 32 32 32 33 36 38 41 44 47 49 51 53 56 58 62 65 69 73 76 78
20 19 22 26 25 25 25 25 25 24 23 23 24 25 26 28 28 28 27 26 26 27 27 29 31 32 34 36 40 43 46 48 51 53 56 59 62 66 70 73 76 79 81 81
19 21 23 24 26 27 27 26 26 27 28 29 29 30 31 30 28 27 26 25 25 26 27 29 32 34 38 41 44 47 50 52 55 59 62 66 70 73 76 79 80 82 82 81
17 18 20 22 25 26 26 26 28 29 31 33 34 35 33 30 28 26 25 24 26 28 30 33 36 39 43 46 49 52 55 58 62 66 70 73 76 78 80 81 82 81 79 75
16 17 19 22 23 22 23 25 28 31 35 37 37 35 33 31 28 27 26 27 29 32 35 38 41 44 47 50 54 57 62 66 69 73 75 78 79 81 81 80 77 72 66 61
17 18 19 20 20 21 23 26 30 34 37 37 36 34 31 29 27 28 30 32 34 37 40 43 46 49 53 57 61 65 69 72 74 77 79 80 79 77 73 68 63 58 53 50
16 17 18 19 21 23 25 29 33 36 37 36 33 31 29 28 29 31 34 37 40 43 45 48 52 56 60 65 68 71 74 76 77 78 77 74 69 64 60 57 55 54 52 50
17 17 19 21 24 26 28 32 35 36 35 34 32 30 30 31 33 36 39 42 44 47 51 55 60 64 68 70 73 74 76 75 73 69 64 61 58 57 56 55 53 50 47 44
18 19 21 23 26 28 31 34 35 34 33 32 31 31 33 35 38 40 43 45 49 54 58 63 66 69 71 73 74 74 71 66 61 58 57 57 56 53 50 47 44 41 37 33
20 21 23 25 28 30 32 34 34 33 31 31 31 33 35 38 41 44 47 52 57 61 65 68 70 72 73 73 70 65 60 58 56 55 53 51 49 45 41 37 33 29 26 22
Wind_Direction
304 306 306 305 304 303 299 296 294 295 295 294 292 290 288 286 285 283 277 269 269 276 280 273 263 261 261 261 263 267 269 270 275 277 281 287 293 300 302 290 289 283 280 286
306 308 307 306 305 298 294 294 291 290 290 289 288 286 284 284 289 293 287 275 273 266 270 271 269 266 264 266 266 266 270 273 278 281 284 287 292 296 302 292 286 285 281 283
309 308 307 305 303 299 297 295 293 290 289 285 282 281 280 279 280 286 290 291 278 268 272 273 273 276 277 276 271 274 277 278 283 286 286 287 292 296 298 291 283 283 279 280
309 308 305 306 303 299 295 296 296 293 290 280 277 280 283 284 279 281 279 279 276 269 271 272 278 284 283 277 275 277 280 283 285 287 287 289 291 294 294 288 281 280 276 279
307 305 304 307 304 300 299 300 300 296 295 286 279 276 284 285 275 275 274 274 274 270 265 269 277 285 288 280 278 277 280 284 286 288 288 289 291 291 290 285 281 278 275 277
306 302 302 309 306 304 304 306 303 299 301 298 292 284 278 269 256 242 249 260 260 258 255 262 270 280 285 285 278 276 282 287 288 288 288 290 290 290 287 282 279 276 275 275
303 301 304 311 310 308 306 307 302 301 303 301 298 296 290 279 267 264 254 244 249 249 258 271 276 281 282 281 277 276 283 289 290 288 289 290 290 288 283 279 277 276 275 275
302 305 313 316 313 313 309 306 302 297 295 296 295 291 289 288 288 283 282 271 259 256 266 276 283 288 287 281 277 280 284 287 290 289 289 289 288 284 280 277 277 277 276 274
304 312 315 313 316 319 312 304 299 292 290 286 284 286 288 293 294 295 286 280 273 273 273 273 283 291 290 283 277 281 286 288 290 289 289 287 285 282 279 278 279 278 276 276
309 315 316 318 321 316 310 305 298 292 287 281 277 276 276 282 288 294 292 281 269 264 278 280 286 293 297 294 286 282 284 288 291 291 288 285 283 280 280 280 280 277 277 279
317 321 324 326 320 314 310 306 297 287 275 265 265 268 271 274 277 283 285 272 259 259 268 275 285 291 295 294 289 287 288 291 293 290 285 283 282 281 282 282 281 279 280 283
322 321 327 332 324 320 320 317 311 299 284 270 265 262 264 271 277 279 277 264 242 243 256 277 286 287 293 296 294 293 293 294 291 286 282 282 284 285 285 285 283 283 284 287
319 318 322 325 335 338 336 331 329 325 306 272 262 271 268 268 267 266 265 243 224 234 257 277 282 286 293 297 297 295 294 292 288 283 283 286 289 290 290 289 288 290 291 292
319 318 322 325 339 347 348 343 341 349 0 349 305 286 272 265 262 257 244 229 240 256 271 278 281 286 292 297 297 295 293 290 288 288 290 292 293 293 293 293 295 295 295 295
318 319 323 330 344 353 3 9 15 23 30 30 19 346 306 279 265 252 249 261 263 266 273 278 283 290 295 296 296 295 294 294 295 296 296 296 295 294 294 295 296 296 297 297
316 320 323 333 342 348 357 12 23 33 46 54 54 44 30 8 342 317 298 285 280 278 280 285 291 295 294 294 294 295 297 298 299 299 299 297 296 296 296 297 297 297 297 297
313 319 325 331 337 343 349 356 0 1 3 3 358 353 345 338 325 312 302 294 290 290 293 295 295 294 293 294 295 298 300 301 301 300 299 298 298 299 299 299 299 299 299 299
313 324 338 340 339 346 350 350 351 351 349 343 341 337 331 323 316 310 305 302 300 298 296 294 294 295 295 297 299 302 303 302 302 301 301 301 302 302 301 301 301 301 301 301
306 317 327 335 340 343 343 343 347 350 351 347 341 335 329 323 318 313 308 305 302 300 299 298 297 298 301 304 305 305 304 303 303 303 303 303 303 303 302 302 302 302 302 301
304 310 320 329 334 336 338 344 347 345 341 338 334 332 330 327 323 318 314 310 308 306 303 303 305 306 306 306 305 305 305 305 305 305 305 304 304 303 303 303 302 302 301 300
305 310 321 330 332 334 339 340 338 335 334 332 330 329 330 329 326 323 320 317 315 312 310 309 308 308 307 307 307 307 307 307 306 306 305 305 304 304 304 303 303 302 301 301
309 317 324 328 329 333 336 336 334 333 333 332 331 330 329 327 324 323 321 319 317 314 312 311 311 311 311 310 310 309 308 307 307 307 306 306 306 305 304 304 303 303 303 303
317 323 325 326 329 332 334 333 333 333 333 333 332 330 327 325 325 323 322 319 317 316 316 315 314 314 312 311 310 310 309 309 309 308 308 307 307 306 306 306 306 306 305 304
322 322 322 325 328 329 328 328 328 330 331 332 331 329 328 326 325 323 321 320 320 319 318 316 315 314 313 313 312 311 311 311 311 310 310 309 309 309 309 309 308 307 306 304
321 319 319 323 325 324 324 325 327 328 329 329 328 326 325 325 325 324 323 322 321 320 318 317 316 316 315 314 314 314 314 314 313 313 313 313 312 312 312 311 310 309 308 307
318 315 317 320 322 323 324 326 327 327 327 327 326 326 326 326 325 324 323 322 321 320 319 319 318 317 317 317 317 317 317 317 317 317 316 314 314 315 315 315 314 315 315 314
315 315 317 320 321 323 325 326 327 328 328 328 327 327 328 327 326 325 325 323 323 322 321 320 320 320 321 321 320 320 321 321 319 319 319 319 321 323 323 324 325 327 330 332
Height
5675 5667 5665 5659 5649 5638 5624 5612 5599 5595 5593 5591 5585 5583 5579 5576 5572 5570 5568 5566 5566 5564 5563 5562 5561 5558 5557 5557 5557 5556 5556 5555 5553 5551 5550 5548 5545 5541 5537 5533 5529 5526 5524 5521
5669 5653 5645 5639 5633 5620 5608 5602 5592 5585 5580 5574 5570 5566 5564 5563 5559 5557 5556 5555 5554 5553 5552 5550 5549 5548 5547 5546 5546 5546 5545 5544 5542 5539 5537 5535 5533 5529 5525 5521 5518 5515 5513 5511
5644 5638 5630 5620 5611 5597 5589 5581 5575 5567 5562 5556 5553 5550 5548 5547 5547 5545 5542 5541 5541 5540 5539 5537 5537 5538 5538 5536 5535 5534 5533 5532 5530 5527 5525 5523 5521 5517 5513 5509 5505 5503 5501 5499
5616 5613 5609 5605 5592 5578 5568 5563 5558 5551 5545 5540 5536 5537 5536 5533 5533 5533 5531 5529 5528 5528 5527 5526 5526 5526 5526 5525 5523 5522 5521 5520 5518 5516 5514 5511 5508 5504 5500 5496 5492 5490 5489 5487
5598 5588 5581 5582 5573 5563 5554 5553 5549 5540 5533 5528 5523 5526 5526 5522 5521 5520 5519 5517 5517 5516 5517 5518 5516 5515 5514 5513 5512 5510 5509 5508 5506 5504 5501 5498 5495 5492 5488 5484 5480 5477 5476 5474
5583 5569 5561 5567 5559 5549 5540 5537 5533 5524 5520 5515 5510 5510 5514 5512 5509 5507 5505 5505 5505 5506 5506 5506 5505 5505 5503 5502 5501 5499 5498 5496 5494 5491 5488 5485 5482 5478 5475 5471 5468 5465 5464 5462
5570 5557 5553 5552 5544 5536 5528 5525 5519 5513 5507 5502 5498 5497 5497 5496 5495 5494 5494 5495 5495 5495 5496 5495 5495 5494 5493 5491 5490 5488 5486 5484 5480 5478 5475 5471 5468 5465 5462 5458 5456 5454 5452 5449
5557 5550 5548 5541 5530 5523 5515 5510 5505 5501 5496 5489 5485 5483 5483 5483 5481 5480 5480 5481 5485 5485 5485 5485 5485 5483 5481 5480 5478 5477 5474 5470 5467 5464 5461 5457 5454 5452 5449 5446 5444 5441 5438 5436
5548 5544 5537 5530 5519 5513 5503 5493 5488 5483 5481 5475 5472 5471 5470 5469 5469 5468 5467 5469 5472 5475 5475 5476 5475 5472 5470 5468 5466 5464 5461 5458 5454 5451 5447 5444 5442 5439 5436 5434 5432 5429 5426 5424
5541 5537 5524 5516 5510 5501 5491 5480 5472 5467 5464 5461 5458 5457 5459 5459 5459 5459 5457 5458 5460 5464 5466 5466 5465 5462 5460 5456 5453 5451 5449 5446 5441 5437 5434 5432 5429 5427 5424 5421 5419 5417 5414 5411
5528 5522 5516 5508 5498 5487 5474 5462 5451 5444 5440 5439 5441 5441 5444 5447 5449 5448 5448 5448 5450 5454 5457 5456 5455 5453 5451 5447 5444 5441 5437 5433 5428 5424 5422 5420 5417 5414 5411 5409 5406 5403 5401 5398
5519 5511 5504 5497 5488 5473 5456 5443 5434 5425 5420 5421 5423 5426 5430 5435 5437 5435 5434 5434 5437 5442 5446 5445 5445 5444 5441 5437 5433 5429 5424 5420 5416 5413 5411 5408 5404 5402 5399 5395 5392 5388 5385 5381
5511 5503 5497 5489 5479 5464 5448 5437 5426 5413 5403 5404 5413 5418 5421 5424 5425 5425 5426 5425 5428 5431 5435 5436 5436 5434 5431 5426 5421 5417 5413 5408 5405 5402 5399 5396 5393 5389 5385 5381 5377 5372 5368 5363
5506 5498 5493 5485 5475 5462 5447 5434 5424 5414 5408 5408 5412 5415 5416 5418 5419 5420 5420 5421 5422 5425 5427 5428 5427 5425 5421 5415 5410 5406 5402 5398 5395 5392 5388 5385 5381 5376 5372 5366 5360 5354 5348 5343
5500 5494 5487 5480 5473 5462 5451 5439 5428 5420 5416 5415 5415 5416 5417 5417 5418 5419 5419 5419 5420 5421 5422 5422 5420 5415 5410 5405 5401 5396 5392 5388 5385 5381 5377 5372 5368 5363 5357 5351 5345 5338 5331 5323
5495 5490 5484 5478 5471 5464 5455 5447 5439 5432 5427 5423 5421 5420 5420 5419 5419 5419 5419 5419 5418 5418 5416 5413 5408 5404 5399 5395 5391 5386 5382 5378 5373 5369 5364 5359 5354 5347 5341 5335 5328 5321 5314 5306
5491 5488 5484 5478 5471 5464 5457 5451 5445 5439 5434 5430 5427 5425 5423 5421 5420 5418 5417 5415 5412 5409 5405 5402 5398 5394 5390 5386 5381 5376 5371 5366 5361 5356 5350 5344 5337 5330 5323 5316 5309 5300 5292 5282
5485 5482 5478 5473 5468 5463 5457 5452 5447 5441 5436 5432 5429 5426 5423 5420 5417 5413 5410 5406 5403 5400 5397 5393 5389 5385 5381 5376 5371 5366 5360 5354 5348 5341 5335 5327 5320 5312 5304 5295 5286 5277 5267 5257
5481 5479 5475 5471 5466 5461 5456 5451 5446 5441 5436 5432 5428 5424 5420 5416 5411 5407 5402 5399 5396 5392 5389 5385 5380 5376 5371 5365 5360 5353 5347 5340 5333 5325 5318 5309 5301 5292 5282 5272 5262 5252 5241 5231
5477 5475 5472 5467 5463 5458 5453 5448 5443 5439 5435 5430 5425 5420 5415 5410 5405 5401 5396 5393 5389 5385 5381 5376 5371 5366 5360 5354 5348 5341 5333 5325 5317 5308 5299 5289 5279 5269 5259 5248 5237 5226 5214 5203
5474 5471 5467 5463 5459 5454 5450 5445 5441 5437 5432 5427 5422 5416 5410 5404 5399 5395 5391 5386 5382 5378 5373 5368 5362 5356 5349 5342 5334 5326 5317 5308 5299 5289 5279 5268 5257 5246 5234 5222 5209 5197 5187 5177
5470 5466 5462 5459 5455 5451 5447 5442 5438 5434 5429 5423 5417 5411 5405 5400 5394 5390 5385 5381 5376 5371 5365 5358 5352 5344 5336 5328 5319 5310 5300 5289 5279 5268 5256 5245 5233 5220 5207 5194 5182 5171 5162 5154
5465 5461 5458 5455 5452 5448 5444 5440 5435 5430 5424 5418 5412 5406 5400 5395 5389 5385 5380 5374 5369 5362 5355 5348 5340 5331 5323 5313 5302 5292 5281 5269 5257 5245 5232 5219 5205 5192 5180 5169 5160 5151 5144 5137
5461 5458 5456 5453 5449 5444 5440 5436 5431 5426 5419 5413 5407 5401 5396 5390 5385 5379 5373 5367 5360 5353 5345 5336 5327 5318 5307 5296 5284 5272 5260 5247 5234 5220 5206 5192 5179 5169 5159 5150 5142 5134 5126 5119
5458 5455 5453 5450 5446 5441 5437 5432 5427 5421 5414 5408 5403 5397 5391 5385 5379 5372 5366 5358 5351 5342 5333 5323 5312 5301 5289 5277 5264 5251 5238 5223 5209 5195 5183 5172 5162 5152 5143 5133 5123 5115 5108 5101
5455 5453 5450 5446 5442 5438 5433 5427 5421 5416 5409 5403 5398 5392 5386 5379 5373 5366 5358 5349 5340 5330 5320 5308 5296 5284 5271 5258 5244 5230 5215 5201 5188 5177 5166 5156 5146 5137 5127 5117 5108 5101 5094 5087
5453 5449 5446 5442 5438 5433 5428 5422 5417 5411 5404 5398 5393 5386 5380 5373 5366 5357 5348 5338 5328 5316 5305 5292 5279 5266 5252 5238 5223 5209 5197 5186 5174 5163 5151 5141 5132 5123 5114 5106 5098 5092 5086 5080